Regional Weather Roundup
Issued by NWS

Home | Current Version | Previous Version | Graphics & Text | Print | Product List | Glossary On
Versions: 1 2 3 4 5 6 7 8 9 10 11 12 13 14 15 16 17 18 19 20 21 22 23 24 25 26 27 28 29 30 31 32 33 34 35 36 37 38 39 40 41 42 43 44 45 46 47 48 49 50
000
ASUS43 KLOT 290608
RWRIL

ILLINOIS REGIONAL WEATHER ROUNDUP
NATIONAL WEATHER SERVICE CHICAGO/ROMEOVILLE IL
100 AM CDT THU JUN 29 2017

NOTE: "FAIR" INDICATES FEW OR NO CLOUDS BELOW 12,000 FEET WITH NO
SIGNIFICANT WEATHER AND/OR OBSTRUCTIONS TO VISIBILITY.

* THESE STATIONS ARE NOT UNDER NWS QUALITY CONTROL. THEY ALSO MAY NOT
  REPORT WEATHER SUCH AS PRECIPITATION OR FOG.

ILZ001-002-007-009-015-016-024-290700-
NORTHWEST ILLINOIS

CITY           SKY/WX    TMP DP  RH WIND       PRES   REMARKS
MOLINE         MOCLDY    78  62  57 SW10      29.71R HX  80
6HR MIN TEMP:  77; 6HR MAX TEMP:  81; 6HR PCP: TRACE;

STERLING*      CLOUDY    75  65  70 SW7       29.72
SAVANNA*       CLOUDY    71  66  83 CALM      29.71R
$$

ILZ003-004-008-010-011-017-018-290700-
NORTH CENTRAL ILLINOIS

CITY           SKY/WX    TMP DP  RH WIND       PRES   REMARKS
ROCKFORD       CLOUDY    69  65  86 SW5G21    29.75R
6HR MIN TEMP:  65; 6HR MAX TEMP:  77; 6HR PCP:  3.39;

FREEPORT*      CLOUDY    69  65  86 S3        29.75R
ROCHELLE*      CLOUDY    70  64  82 S9        29.74R
DE KALB*       CLOUDY    71  64  79 S15G21    29.76R
PERU*          CLOUDY    77  62  60 SW31G43   29.71F
$$

ILZ005-006-012>014-019>023-290700-
NORTHEAST ILLINOIS

CITY           SKY/WX    TMP DP  RH WIND       PRES   REMARKS
CHICAGO-OHARE  CLOUDY    67  64  90 E8        29.79F
6HR MIN TEMP:  66; 6HR MAX TEMP:  79; 6HR PCP:  1.10;

CHICAGO-MIDWAY CLOUDY    70  65  84 SE13      29.80F
6HR MIN TEMP:  69; 6HR MAX TEMP:  80; 6HR PCP:  0.03;

AURORA         CLOUDY    72  64  76 S10       29.76F
6HR MIN TEMP:  68; 6HR MAX TEMP:  77; 6HR PCP:  0.01;

LANSING*       CLOUDY    74  62  64 SW10G21   29.82S
JOLIET*        CLOUDY    78  65  64 W8        29.80R HX  80
WAUKEGAN       CLOUDY    65  64  97 S9        29.77F
6HR MIN TEMP:  64; 6HR MAX TEMP:  75; 6HR PCP:  1.20;

DUPAGE AIRPORT CLOUDY    70  65  84 S10       29.77F
6HR MIN TEMP:  66; 6HR MAX TEMP:  77; 6HR PCP:  0.36;

WHEELING       CLOUDY    66  66 100 SE7       29.80S
6HR MIN TEMP:  64; 6HR MAX TEMP:  78; 6HR PCP:  2.00;

MORRIS*        CLOUDY    75  64  66 S20G25    29.75R
ROMEOVILLE*    CLOUDY    73  62  68 SW7       29.81F
$$

LMZ740>746-290700-
SOUTHERN LAKE MICHIGAN

STATION/POSITION SKY/WX   TEMP    WIND        PRES    VSBY  WAVE
                          AIR SEA DIR/SP/G                  HT/PER
                          (F)     (DEG/KT/KT) (MB)    (MI)  (FT/S)
SOUTHERN BUOY              62 60  120/ 14/ 17 1008.0F         2/ 5
WILMETTE HARBOR            63 62  130/ 10/ 14   N/A           1/ 4
HARRISON CRIB              65      10/  8/  9   N/A
BURNHAM HARBOR             65                   N/A
CALUMET HARBOR                     40/  8/ 11 1010.3R
BURNS HARBOR               75     230/ 11/ 16 1011.2R
MICHIGAN CITY              70     360/ 14/ 17   N/A
MICHIGAN CITY 6N           66 65   30/ 14/ 17   N/A           1/ 3
ST. JOSEPH                 66 67   20/ 16/ 21 1012.3          2/ 5
$$

ILZ025>027-034>036-040-047-049-050-058-095>099-290700-
WEST-CENTRAL ILLINOIS

CITY           SKY/WX    TMP DP  RH WIND       PRES   REMARKS
QUINCY         LGT RAIN  66  64  93 S3        29.91F
GALESBURG*     LGT RAIN  70  63  79 S33G49    29.73S
MACOMB*        RAIN      67  65  93 S12       29.90S
JACKSONVILLE*  CLOUDY    76  63  62 W10       29.92R
PITTSFIELD*    CLOUDY    74  61  62 NW14      29.98R
$$

ILZ028>032-037-038-041>044-048-051>054-059>061-290700-
CENTRAL ILLINOIS

CITY           SKY/WX    TMP DP  RH WIND       PRES   REMARKS
PONTIAC        CLOUDY    78  66  65 S26G38    29.80F HX  80
BLOOMINGTON    CLOUDY    75  64  68 SW28      29.86S
DECATUR        MOCLDY    75  63  66 SW14      29.91F
PEORIA         TSTM      72  68  87 SW20      29.84R
6HR MIN TEMP:  72; 6HR MAX TEMP:  83; 6HR PCP:  0.02;

LACON*           N/A     76  65  67 SW40G53   29.66F
LINCOLN*       MOCLDY    77  67  69 SW8       29.89S
SPRINGFIELD    CLOUDY    78  66  66 SW13G21   29.91R HX  80
6HR MIN TEMP:  78; 6HR MAX TEMP:  85;

TAYLORVILLE    MOCLDY    75  65  70 S12G17    29.92F
6HR MIN TEMP:  74; 6HR MAX TEMP:  82;

$$

ILZ033-039-045-046-055>057-062-063-290700-
EAST-CENTRAL ILLINOIS

CITY           SKY/WX    TMP DP  RH WIND       PRES   REMARKS
CHAMPAIGN      CLOUDY    75  63  66 S16G23    29.91F
RANTOUL*       MOCLDY    77  65  67 S15G23    29.89S
MATTOON        CLOUDY    74  66  76 S12G18    29.93S
PARIS*         MOCLDY    73  64  74 S14G22    29.94F
$$

ILZ079-100>102-290700-
SOUTHWEST ILLINOIS

CITY           SKY/WX    TMP DP  RH WIND       PRES   REMARKS
ALTON          MOCLDY    74  67  78 S7        29.93S
BELLEVILLE     CLOUDY    72  65  79 S5        29.94S
CAHOKIA*       CLOUDY    76  64  66 S5        29.92S
SPARTA*        CLOUDY    72  64  76 SE5       29.96S
$$

ILZ064>066-069>071-074>076-080>082-084>086-088>090-092>094-290700-
SOUTH-CENTRAL ILLINOIS

CITY           SKY/WX    TMP DP  RH WIND       PRES   REMARKS
CARBONDALE     CLOUDY    71  66  84 S6        29.96S
6HR MIN TEMP:  71; 6HR MAX TEMP:  83;

CAIRO*         CLOUDY    75  66  74 S6        29.98R
EFFINGHAM*     CLOUDY    73  66  78 S8        29.96F
MARION         CLOUDY    75  66  73 S7        29.98S
MT. VERNON     CLOUDY    70  64  81 S3        29.97S
CENTRALIA*     CLOUDY    72  65  79 S8        29.95S
SALEM*         CLOUDY    73  64  73 S5        29.96S
METROPOLIS*    CLOUDY    74  66  74 S3        29.99S
$$

ILZ067-068-072-073-078-083-087-091-290700-
SOUTHEAST ILLINOIS

CITY           SKY/WX    TMP DP  RH WIND       PRES   REMARKS
LAWRENCEVILLE  CLOUDY    67  64  90 S8        29.98S
FLORA*         MOCLDY    73  66  80 S7        29.97S
FAIRFIELD*     CLOUDY    71  66  83 S3        29.96F
HARRISBURG*    CLOUDY    74  66  74 S5        29.98S
ROBINSON*      CLOUDY    68  63  83 S6        29.97F
CARMI*         MOCLDY    69  66  88 S6        29.98R
$$

ABBREVIATIONS USED IN REMARKS
   TC - TEMPERATURE IN CELSIUS
  WCI - WIND CHILL INDEX
   HX - HEAT INDEX
  VSB - VISIBILITY
$$




USA.gov is the U.S. government's official web portal to all federal, state and local government web resources and services.